Location: Bemmer
(51.5498°N, 5.6249°E)
Time: 02:52:47
(UTC+00:00)

Cosmos 1869 Rocket - Pass Details

Date: 03 March 2021
Orbit: 605 x 633 km, 82.5° (Epoch: 13 April)

Event Time Altitude Azimuth Distance (km) Brightness Sun altitude
Rises 19:51:42 0° 198° (SSW) 2,864 7.0 -23.8°
Reaches altitude 10° 19:53:55 10° 202° (SSW) 1,968 6.1 -24.1°
Maximum altitude 19:58:14 61° 283° (WNW) 704 4.0 -24.7°
Drops below altitude 10° 20:02:38 10° 5° (N) 2,001 6.4 -25.3°
Sets 20:04:54 0° 9° (N) 2,917 7.2 -25.7°
